HEBOWX Weather Reports


Display with metric or nautical units.
time (UTC)temp
F
wind
direction
speed
MPH
gust
MPH
rain 1hr
in
rain 24hr
in
rain mn
in
humidity
%
barometer
mb
20260508013036 57 268 2.0 5.0 0.00 0.00 0.00 36 1014.2
20260508012535 57 256 0.0 4.0 0.00 0.00 0.00 41 1014.6
20260508012035 57 190 1.0 4.0 0.00 0.00 0.00 38 1014.3
20260508011535 57 212 1.0 3.0 0.00 0.00 0.00 37 1014.6
20260508011035 57 231 0.0 2.0 0.00 0.00 0.00 43 1014.4
20260508010535 57 236 0.0 3.0 0.00 0.00 0.00 45 1014.5
20260508010037 57 0 0.0 3.0 0.00 0.00 0.00 47 1014.5
20260508005535 57 264 0.0 3.0 0.00 0.00 0.00 48 1014.7
20260508005035 57 270 1.0 6.0 0.00 0.00 0.00 49 1015.1
20260508004535 58 266 0.0 6.0 0.00 0.00 0.00 49 1014.7
20260508004035 57 242 0.0 6.0 0.00 0.00 0.00 51 1014.8
20260508003535 57 282 1.0 3.0 0.00 0.00 0.00 50 1014.7
20260508003035 57 263 1.0 2.0 0.00 0.00 0.00 49 1014.6
20260508002535 57 0 0.0 0.0 0.00 0.00 0.00 49 1014.8
20260508002035 57 0 0.0 0.0 0.00 0.00 0.00 50 1014.6
20260508001535 57 0 0.0 0.0 0.00 0.00 0.00 52 1014.6
20260508001035 56 0 0.0 0.0 0.00 0.00 0.00 52 1014.8
20260508000535 56 0 0.0 0.0 0.00 0.00 0.00 51 1014.8
20260508000035 56 0 0.0 0.0 0.00 0.00 0.00 52 1014.6
20260507235537 56 0 0.0 0.0 0.00 0.00 0.00 52 1015.1
20260507235035 56 0 0.0 0.0 0.00 0.00 0.00 51 1014.8
20260507234535 57 0 0.0 0.0 0.00 0.00 0.00 51 1014.8
20260507234035 57 0 0.0 0.0 0.00 0.00 0.00 50 1015.3
20260507233535 57 21 0.0 0.0 0.00 0.00 0.00 51 1014.8
20260507233035 57 0 0.0 0.0 0.00 0.00 0.00 51 1015.1
20260507232535 57 0 0.0 0.0 0.00 0.00 0.00 51 1015.6
20260507232035 57 0 0.0 0.0 0.00 0.00 0.00 50 1015.0
20260507231535 57 0 0.0 0.0 0.00 0.00 0.00 49 1015.2
20260507231035 57 0 0.0 0.0 0.00 0.00 0.00 49 1015.1
20260507230535 57 0 0.0 0.0 0.00 0.00 0.00 46 1015.2
20260507230035 57 0 0.0 0.0 0.00 0.00 0.00 50 1015.2
20260507225625 57 0 0.0 0.0 0.00 0.00 0.00 50 1015.5
20260507225535 57 0 0.0 0.0 0.00 0.00 0.00 50 1015.5
20260507225035 57 0 0.0 0.0 0.00 0.00 0.00 46 1015.3
20260507224535 57 21 0.0 0.0 0.00 0.00 0.00 51 1015.4
20260507224036 57 0 0.0 0.0 0.00 0.00 0.00 50 1015.5
20260507223535 57 21 0.0 0.0 0.00 0.00 0.00 50 1015.4
20260507223035 57 249 0.0 0.0 0.00 0.00 0.00 50 1015.6
20260507222535 57 0 0.0 0.0 0.00 0.00 0.00 51 1015.5
20260507222035 57 0 0.0 0.0 0.00 0.00 0.00 49 1015.4
20260507221535 58 0 0.0 0.0 0.00 0.00 0.00 50 1015.5
20260507221035 58 0 0.0 1.0 0.00 0.00 0.00 49 1015.6
20260507220535 58 249 0.0 1.0 0.00 0.00 0.00 50 1015.6
20260507220035 58 319 0.0 1.0 0.00 0.00 0.00 49 1015.7
20260507215535 58 232 0.0 3.0 0.00 0.00 0.00 50 1016.3
20260507215035 58 0 0.0 3.0 0.00 0.00 0.00 50 1015.9
20260507214535 58 260 0.0 3.0 0.00 0.00 0.00 50 1015.7
20260507214035 58 0 0.0 0.0 0.00 0.00 0.00 45 1016.1
20260507213535 57 0 0.0 0.0 0.00 0.00 0.00 51 1015.7
20260507213035 58 0 0.0 1.0 0.00 0.00 0.00 49 1015.7
20260507212535 57 0 0.0 1.0 0.00 0.00 0.00 50 1016.0
20260507212035 57 22 0.0 1.0 0.00 0.00 0.00 49 1016.2
20260507211535 57 0 0.0 0.0 0.00 0.00 0.00 48 1015.9
20260507211034 57 0 0.0 0.0 0.00 0.00 0.00 50 1016.2
20260507210534 57 0 0.0 1.0 0.00 0.00 0.00 50 1015.7
20260507210034 57 0 0.0 1.0 0.00 0.00 0.00 49 1015.7
20260507205534 57 357 0.0 1.0 0.00 0.00 0.00 51 1016.1
20260507205034 57 0 0.0 0.0 0.00 0.00 0.00 50 1015.7
20260507204534 57 0 0.0 0.0 0.00 0.00 0.00 50 1015.9
20260507204034 57 0 0.0 0.0 0.00 0.00 0.00 49 1016.0
20260507203534 57 0 0.0 3.0 0.00 0.00 0.00 50 1015.9
20260507203035 57 0 0.0 3.0 0.00 0.00 0.00 50 1015.9
20260507202534 57 33 0.0 3.0 0.00 0.00 0.00 51 1016.1
20260507202034 57 12 0.0 1.0 0.00 0.00 0.00 49 1016.0
20260507201534 57 0 0.0 2.0 0.00 0.00 0.00 48 1016.0
20260507201035 57 351 0.0 2.0 0.00 0.00 0.00 50 1016.0
20260507200534 57 54 0.0 2.0 0.00 0.00 0.00 52 1016.0
20260507200034 56 120 0.0 4.0 0.00 0.00 0.00 56 1016.0
20260507195534 56 0 1.0 4.0 0.00 0.00 0.00 55 1016.1
20260507195034 56 357 0.0 4.0 0.00 0.00 0.00 55 1016.0
20260507194534 55 242 0.0 2.0 0.00 0.00 0.00 56 1016.4
20260507193534 55 0 0.0 0.0 0.00 0.00 0.00 56 1016.5
20260507193034 55 0 0.0 0.0 0.00 0.00 0.00 56 1016.2
20260507192534 55 0 0.0 0.0 0.00 0.00 0.00 57 1016.5
20260507192034 55 0 0.0 0.0 0.00 0.00 0.00 58 1016.1
20260507191534 54 0 0.0 0.0 0.00 0.00 0.00 57 1016.2
20260507191034 54 135 0.0 0.0 0.00 0.00 0.00 58 1016.1
20260507190534 54 263 0.0 4.0 0.00 0.00 0.00 59 1016.1
20260507190034 54 263 0.0 4.0 0.00 0.00 0.00 57 1016.2
20260507185534 54 109 0.0 4.0 0.00 0.00 0.00 56 1016.2
20260507185034 53 0 0.0 3.0 0.00 0.00 0.00 58 1016.2
20260507184534 53 144 0.0 3.0 0.00 0.00 0.00 59 1016.0
20260507184034 53 242 0.0 3.0 0.00 0.00 0.00 59 1016.5
20260507183534 52 16 0.0 1.0 0.00 0.00 0.00 61 1016.2
20260507183034 52 0 0.0 3.0 0.00 0.00 0.00 62 1016.1
20260507182534 52 0 0.0 3.0 0.00 0.00 0.00 63 1016.2
20260507182034 52 29 0.0 3.0 0.00 0.00 0.00 64 1016.1
20260507181534 52 254 0.0 2.0 0.00 0.00 0.00 63 1016.1
20260507181034 51 0 0.0 2.0 0.00 0.00 0.00 64 1016.3
20260507180534 51 253 0.0 2.0 0.00 0.00 0.00 64 1016.2
20260507180034 51 26 0.0 0.0 0.00 0.00 0.00 64 1016.1
20260507175534 51 0 0.0 0.0 0.00 0.00 0.00 66 1016.2
20260507175034 51 18 0.0 0.0 0.00 0.00 0.00 67 1016.3
20260507174534 50 0 0.0 0.0 0.00 0.00 0.00 67 1016.1
20260507174034 50 0 0.0 0.0 0.00 0.00 0.00 67 1016.1
20260507173534 50 40 0.0 1.0 0.00 0.00 0.00 68 1016.1
20260507173034 50 33 0.0 1.0 0.00 0.00 0.00 68 1016.1
20260507172535 50 57 0.0 1.0 0.00 0.00 0.00 68 1016.3
20260507172034 49 0 0.0 0.0 0.00 0.00 0.00 68 1016.1
20260507171534 49 0 0.0 1.0 0.00 0.00 0.00 69 1016.1
20260507171034 49 0 0.0 1.0 0.00 0.00 0.00 70 1016.3
20260507170534 49 23 0.0 1.0 0.00 0.00 0.00 70 1016.1
20260507170034 48 123 0.0 0.0 0.00 0.00 0.00 69 1016.3
20260507165534 48 228 0.0 3.0 0.00 0.00 0.00 68 1016.0
20260507165034 48 0 0.0 3.0 0.00 0.00 0.00 70 1016.1
20260507164535 48 250 0.0 3.0 0.00 0.00 0.00 70 1016.1
20260507164034 48 151 0.0 3.0 0.00 0.00 0.00 70 1016.0
20260507163539 48 0 0.0 3.0 0.00 0.00 0.00 71 1016.0
20260507163034 48 254 0.0 3.0 0.00 0.00 0.00 72 1016.0
20260507162534 48 0 1.0 1.0 0.00 0.00 0.00 73 1016.0
20260507162034 48 0 0.0 0.0 0.00 0.00 0.00 70 1016.1
20260507161534 47 0 0.0 0.0 0.00 0.00 0.00 73 1016.0
20260507161034 47 0 0.0 0.0 0.00 0.00 0.00 73 1015.9
20260507160534 47 0 0.0 0.0 0.00 0.00 0.00 74 1016.1
20260507160034 47 0 0.0 0.0 0.00 0.00 0.00 74 1015.9
20260507155535 47 0 0.0 0.0 0.00 0.00 0.00 75 1016.0
20260507155034 47 0 0.0 0.0 0.00 0.00 0.00 76 1016.0
20260507154534 47 0 0.0 0.0 0.00 0.00 0.00 76 1016.1
20260507154034 46 0 0.0 0.0 0.00 0.00 0.00 76 1016.0
20260507153535 46 0 0.0 0.0 0.00 0.00 0.00 77 1016.3
20260507153034 46 0 0.0 0.0 0.00 0.00 0.00 76 1015.9
20260507152534 46 0 0.0 0.0 0.00 0.00 0.00 77 1016.0
20260507152034 46 0 0.0 0.0 0.00 0.00 0.00 78 1015.9
20260507151534 45 0 0.0 0.0 0.00 0.00 0.00 78 1015.7
20260507151034 45 0 0.0 0.0 0.00 0.00 0.00 78 1016.0
20260507150535 45 0 0.0 0.0 0.00 0.00 0.00 78 1015.9
20260507150035 45 0 0.0 0.0 0.00 0.00 0.00 78 1015.9
20260507145534 45 0 0.0 0.0 0.00 0.00 0.00 78 1016.0
20260507145034 45 0 0.0 0.0 0.00 0.00 0.00 78 1015.7
20260507144534 45 0 0.0 0.0 0.00 0.00 0.00 78 1015.7
20260507144034 45 0 0.0 0.0 0.00 0.00 0.00 78 1015.9
20260507143534 45 0 0.0 0.0 0.00 0.00 0.00 78 1015.9
20260507143034 44 0 0.0 0.0 0.00 0.00 0.00 79 1015.6
20260507142535 44 0 0.0 0.0 0.00 0.00 0.00 77 1016.0
20260507142034 44 0 0.0 0.0 0.00 0.00 0.00 76 1015.7
20260507141534 44 0 0.0 0.0 0.00 0.00 0.00 79 1015.6
20260507141034 44 0 0.0 0.0 0.00 0.00 0.00 79 1015.7
20260507140534 44 0 0.0 0.0 0.00 0.00 0.00 79 1015.6
20260507140034 44 0 0.0 0.0 0.00 0.00 0.00 79 1015.6
20260507135534 43 0 0.0 0.0 0.00 0.00 0.00 79 1016.2
20260507135034 43 0 0.0 0.0 0.00 0.00 0.00 79 1015.7
20260507134534 43 0 0.0 0.0 0.00 0.00 0.00 79 1015.7
20260507134034 43 0 0.0 0.0 0.00 0.00 0.00 79 1015.6
20260507133534 43 0 0.0 0.0 0.00 0.00 0.00 79 1015.4
20260507133034 43 0 0.0 0.0 0.00 0.00 0.00 79 1015.5
20260507132534 43 0 0.0 0.0 0.00 0.00 0.00 79 1016.0
20260507132034 43 0 0.0 0.0 0.00 0.00 0.00 79 1015.9
20260507131534 43 0 0.0 0.0 0.00 0.00 0.00 78 1015.5
20260507131034 43 0 0.0 0.0 0.00 0.00 0.00 79 1015.9
20260507130535 43 0 0.0 0.0 0.00 0.00 0.00 79 1015.5
20260507130034 43 0 0.0 0.0 0.00 0.00 0.00 79 1015.5
20260507125534 43 0 0.0 0.0 0.00 0.00 0.00 78 1015.9
20260507125034 44 0 0.0 0.0 0.00 0.00 0.00 79 1015.7
20260507124534 44 0 0.0 0.0 0.00 0.00 0.00 79 1015.6
20260507124033 44 0 0.0 0.0 0.00 0.00 0.00 79 1016.1
20260507123533 44 0 0.0 0.0 0.00 0.00 0.00 79 1015.6
20260507123033 44 0 0.0 0.0 0.00 0.00 0.00 79 1015.6
20260507122533 44 0 0.0 0.0 0.00 0.00 0.00 79 1015.9
20260507122033 45 0 0.0 0.0 0.00 0.00 0.00 79 1015.7
20260507121533 45 0 0.0 0.0 0.00 0.00 0.00 80 1015.7
20260507121033 45 0 0.0 0.0 0.00 0.00 0.00 80 1015.7
20260507120533 45 0 0.0 0.0 0.00 0.00 0.00 80 1015.7
20260507120034 45 0 0.0 0.0 0.00 0.00 0.00 80 1015.9
20260507115534 45 0 0.0 0.0 0.00 0.00 0.00 80 1016.0
20260507115033 45 0 0.0 0.0 0.00 0.00 0.00 79 1016.0
20260507114533 45 0 0.0 0.0 0.00 0.00 0.00 80 1016.0
20260507114034 45 0 0.0 0.0 0.00 0.00 0.00 80 1016.0
20260507113533 45 0 0.0 0.0 0.00 0.00 0.00 80 1016.0
20260507113033 45 0 0.0 0.0 0.00 0.00 0.00 80 1016.0
20260507112536 45 0 0.0 0.0 0.00 0.00 0.00 80 1016.1
20260507112033 45 0 0.0 0.0 0.00 0.00 0.00 80 1016.1
20260507111533 45 0 0.0 0.0 0.00 0.00 0.00 80 1016.1
20260507111033 45 0 0.0 0.0 0.00 0.00 0.00 81 1016.3
20260507110533 45 0 0.0 0.0 0.00 0.00 0.00 80 1016.1
20260507110033 45 0 0.0 0.0 0.00 0.00 0.00 81 1016.2
20260507105533 45 0 0.0 0.0 0.00 0.00 0.00 80 1016.2
20260507105033 45 0 0.0 0.0 0.00 0.00 0.00 80 1016.2
20260507104533 45 0 0.0 0.0 0.00 0.00 0.00 80 1016.2
20260507104033 44 0 0.0 0.0 0.00 0.00 0.00 80 1016.2
20260507103533 44 0 0.0 0.0 0.00 0.00 0.00 79 1016.3
20260507103033 44 0 0.0 0.0 0.00 0.00 0.00 79 1016.3
20260507102533 44 0 0.0 0.0 0.00 0.00 0.00 80 1016.4
20260507102034 43 0 0.0 0.0 0.00 0.00 0.00 80 1016.4
20260507101533 43 0 0.0 0.0 0.00 0.00 0.00 79 1016.4
20260507101035 43 0 0.0 0.0 0.00 0.00 0.00 78 1016.5
20260507100533 43 0 0.0 0.0 0.00 0.00 0.00 79 1016.5
20260507100033 43 0 0.0 0.0 0.00 0.00 0.00 78 1016.6
20260507095534 43 0 0.0 0.0 0.00 0.00 0.00 79 1016.6
20260507095033 43 0 0.0 0.0 0.00 0.00 0.00 79 1016.6
20260507094033 43 0 0.0 0.0 0.00 0.00 0.00 79 1016.6
20260507093533 43 0 0.0 0.0 0.00 0.00 0.00 79 1016.7
20260507093033 42 0 0.0 0.0 0.00 0.00 0.00 79 1016.9
20260507092533 43 0 0.0 0.0 0.00 0.00 0.00 79 1016.9
20260507092033 43 0 0.0 0.0 0.00 0.00 0.00 79 1017.0
20260507091533 43 0 0.0 0.0 0.00 0.00 0.00 79 1017.0
20260507091034 43 0 0.0 0.0 0.00 0.00 0.00 78 1016.9
20260507090533 43 0 0.0 0.0 0.00 0.00 0.00 78 1016.9
20260507090034 43 0 0.0 0.0 0.00 0.00 0.00 79 1017.1
20260507085533 43 0 0.0 0.0 0.00 0.00 0.00 79 1017.1
20260507085033 43 0 0.0 0.0 0.00 0.00 0.00 78 1017.1
20260507084533 43 0 0.0 0.0 0.00 0.00 0.00 78 1017.2
20260507084033 43 0 0.0 0.0 0.00 0.00 0.00 79 1017.4
20260507083533 43 0 0.0 0.0 0.00 0.00 0.00 78 1017.2
20260507083033 43 0 0.0 0.0 0.00 0.00 0.00 79 1017.5
20260507082534 43 0 0.0 0.0 0.00 0.00 0.00 79 1017.4
20260507082033 43 0 0.0 0.0 0.00 0.00 0.00 78 1017.4
20260507081533 43 0 0.0 0.0 0.00 0.00 0.00 78 1017.1
20260507081033 43 0 0.0 0.0 0.00 0.00 0.00 78 1017.1
20260507080533 43 0 0.0 0.0 0.00 0.00 0.00 79 1017.2
20260507080033 43 0 0.0 0.0 0.00 0.00 0.00 79 1017.3
20260507075533 43 0 0.0 0.0 0.00 0.00 0.00 79 1017.4
20260507075035 43 0 0.0 0.0 0.00 0.00 0.00 79 1017.2
20260507074533 43 0 0.0 0.0 0.00 0.00 0.00 79 1017.2
20260507074033 43 0 0.0 0.0 0.00 0.00 0.00 79 1017.5
20260507073533 43 0 0.0 0.0 0.00 0.00 0.00 79 1017.3
20260507073033 43 0 0.0 0.0 0.00 0.00 0.00 79 1017.2
20260507072533 43 0 0.0 0.0 0.00 0.00 0.00 80 1017.4
20260507072033 43 0 0.0 0.0 0.00 0.00 0.00 80 1017.1
20260507071534 43 0 0.0 0.0 0.00 0.00 0.00 80 1017.1
20260507071034 43 0 0.0 0.0 0.00 0.00 0.00 80 1017.1
20260507070533 43 0 0.0 0.0 0.00 0.00 0.00 80 1017.3
20260507070035 43 0 0.0 0.0 0.00 0.00 0.00 80 1017.2
20260507065533 43 0 0.0 0.0 0.00 0.00 0.00 79 1017.2
20260507065033 43 0 0.0 0.0 0.00 0.00 0.00 79 1017.1
20260507064534 43 0 0.0 0.0 0.00 0.00 0.00 80 1017.3
20260507064033 43 0 0.0 0.0 0.00 0.00 0.00 79 1017.3
20260507063533 42 0 0.0 0.0 0.00 0.00 0.00 80 1017.2
20260507063033 43 0 0.0 0.0 0.00 0.00 0.00 79 1017.4
20260507062532 43 0 0.0 0.0 0.00 0.00 0.00 80 1017.5
20260507062033 43 0 0.0 0.0 0.00 0.00 0.00 80 1017.3
20260507061533 43 0 0.0 0.0 0.00 0.00 0.00 80 1017.6
20260507061033 43 0 0.0 2.0 0.00 0.00 0.00 80 1017.4
20260507060649 43 0 0.0 2.0 0.00 0.00 0.00 80 1017.3
20260507060533 43 0 0.0 2.0 0.00 0.00 0.00 80 1017.3
20260507060033 43 26 0.0 2.0 0.00 0.00 0.00 79 1017.3
20260507055533 43 0 0.0 1.0 0.00 0.00 0.00 79 1017.5
20260507055033 43 0 0.0 1.0 0.00 0.00 0.00 79 1017.6
20260507054533 43 336 0.0 1.0 0.00 0.00 0.00 79 1017.3
20260507054033 43 0 0.0 0.0 0.00 0.00 0.00 79 1017.5
20260507053533 43 0 0.0 0.0 0.00 0.00 0.00 79 1017.4
20260507053033 43 0 0.0 0.0 0.00 0.00 0.00 79 1017.4
20260507052533 43 0 0.0 0.0 0.00 0.00 0.00 79 1017.5
20260507052033 44 333 0.0 1.0 0.00 0.00 0.00 79 1017.7
20260507051533 43 0 0.0 1.0 0.00 0.00 0.00 79 1017.7
20260507051033 43 333 0.0 1.0 0.00 0.00 0.00 79 1017.5
20260507050533 44 340 0.0 1.0 0.00 0.00 0.00 78 1017.5
20260507050033 44 0 0.0 1.0 0.00 0.00 0.00 78 1017.3
20260507045534 44 326 0.0 1.0 0.00 0.00 0.00 78 1017.3
20260507045033 44 326 0.0 3.0 0.00 0.00 0.00 79 1017.3
20260507044533 44 334 0.0 3.0 0.00 0.00 0.00 78 1017.4
20260507044033 44 309 0.0 3.0 0.00 0.00 0.00 78 1017.4
20260507043533 44 334 0.0 2.0 0.00 0.00 0.00 78 1017.5
20260507043033 44 326 0.0 2.0 0.00 0.00 0.00 78 1017.5
20260507042533 44 1 0.0 1.0 0.00 0.00 0.00 78 1017.5
20260507042032 44 0 0.0 4.0 0.00 0.00 0.00 77 1017.5
20260507041533 44 330 0.0 4.0 0.00 0.00 0.00 77 1017.5
20260507041033 44 312 0.0 4.0 0.00 0.00 0.00 77 1017.4
20260507040534 44 337 0.0 3.0 0.00 0.00 0.00 78 1017.4
20260507040033 45 338 0.0 3.0 0.00 0.00 0.00 77 1017.4
20260507035533 45 334 0.0 3.0 0.00 0.00 0.00 77 1017.4
20260507035032 45 334 0.0 3.0 0.00 0.00 0.00 77 1017.3
20260507034532 45 344 0.0 4.0 0.00 0.00 0.00 77 1017.3
20260507034032 45 341 1.0 4.0 0.00 0.00 0.00 77 1017.2
20260507033532 45 320 0.0 4.0 0.00 0.00 0.00 76 1017.2
20260507033032 45 343 0.0 3.0 0.00 0.00 0.00 77 1017.2
20260507032534 45 331 1.0 3.0 0.00 0.00 0.00 76 1017.1
20260507032032 45 333 0.0 3.0 0.00 0.00 0.00 75 1017.2
20260507031533 45 326 1.0 4.0 0.00 0.00 0.00 76 1017.1
20260507031032 45 331 0.0 4.0 0.00 0.00 0.00 75 1017.1
20260507030532 46 357 0.0 4.0 0.00 0.00 0.00 76 1017.0
20260507030033 46 319 2.0 3.0 0.00 0.00 0.00 75 1017.1
20260507025533 46 347 1.0 3.0 0.00 0.00 0.00 75 1017.1
20260507025032 46 345 1.0 3.0 0.00 0.00 0.00 75 1017.1
20260507024533 46 329 1.0 3.0 0.00 0.00 0.00 75 1017.0
20260507024033 46 329 1.0 3.0 0.00 0.00 0.00 74 1017.0
20260507023532 47 316 0.0 3.0 0.00 0.00 0.00 75 1017.0
20260507023032 47 319 0.0 3.0 0.00 0.00 0.00 74 1017.0
20260507022533 47 331 1.0 2.0 0.00 0.00 0.00 74 1017.0
20260507022032 47 347 0.0 4.0 0.00 0.00 0.00 72 1017.1
20260507021532 47 320 1.0 4.0 0.00 0.00 0.00 73 1017.0
20260507021033 48 312 0.0 4.0 0.00 0.00 0.00 72 1017.1
20260507020532 48 330 0.0 3.0 0.00 0.00 0.00 72 1017.1
20260507020032 48 329 0.0 3.0 0.00 0.00 0.00 72 1017.1
20260507015534 49 282 0.0 2.0 0.00 0.00 0.00 71 1017.2
20260507015032 49 340 0.0 2.0 0.00 0.00 0.00 70 1017.2
20260507014532 49 326 0.0 2.0 0.00 0.00 0.00 69 1017.2
20260507014035 49 336 0.0 2.0 0.00 0.00 0.00 68 1017.3
20260507013533 49 336 0.0 2.0 0.00 0.00 0.00 67 1017.3